{"data":{"norad_id":69694,"epoch":"2026-09-19T09:08:34.441152Z","epoch_age_seconds":118314,"freshness":"FRESH","line1":"1 69694U 26145T   26262.38095418  .00004595  00000+0  14460-3 0  9998","line2":"2 69694  97.2852 109.0924 0001754  90.2064 269.9380 15.33438210 13373","mean_motion":15.3343821,"eccentricity":0.0001754,"inclination_deg":97.2852,"raan_deg":109.0924,"arg_perigee_deg":90.2064,"mean_anomaly_deg":269.938,"bstar":0.0001446,"rev_number":1337,"period_min":93.906620469566,"perigee_km":464.36299176941,"apogee_km":466.7637618616,"semimajor_km":6843.7003768155,"source":"CELESTRAK","updated_at":"2026-09-20T09:00:44.255531Z"}}